Weather Service Report


749 
ASUS44 KLZK 300005
RWRLZK

WEATHER ROUNDUP FOR ARKANSAS
NATIONAL WEATHER SERVICE LITTLE ROCK AR
700 PM CDT FRI APR 29 2016

NOTE: "FAIR" INDICATES FEW OR NO CLOUDS BELOW 12,000 FEET WITH NO
SIGNIFICANT WEATHER AND/OR OBSTRUCTIONS TO VISIBILITY.

ARZ001-003-010-029-300100-
NORTHWEST ARKANSAS
  
CITY           SKY/WX    TMP DP  RH WIND       PRES   REMARKS
FAYETTEVILLE   TSTM      65  63  93 SE15      29.72R                  
6HR MIN TEMP:  64; 6HR MAX TEMP:  74; 6HR PCP:  0.37;                

FORT SMITH     RAIN      66  62  87 E12       29.67F FOG              
6HR MIN TEMP:  64; 6HR MAX TEMP:  71; 6HR PCP:  0.82;                

HARRISON       LGT RAIN  58  58 100 SE10      29.80R FOG              
6HR MIN TEMP:  54; 6HR MAX TEMP:  58; 6HR PCP:  0.01;                

BENTONVILLE    CLOUDY    63  57  82 SE13      29.72S                  
6HR MIN TEMP:  63; 6HR MAX TEMP:  68; 6HR PCP:  0.04;                

ROGERS         RAIN      61  59  93 E12       29.73R                  
6HR MIN TEMP:  61; 6HR MAX TEMP:  66; 6HR PCP:  0.02;                

SILOAM SPGS    CLOUDY    66  55  68 SE13      29.69F                  
6HR MIN TEMP:  66; 6HR MAX TEMP:  70;                                

HIGHFILL       CLOUDY    63  62  97 E13       29.69S                  
6HR MIN TEMP:  63; 6HR MAX TEMP:  69; 6HR PCP:  0.02;                

SPRINGDALE     CLOUDY    64  63  94 E6G13     29.75R                  
$$

ARZ004-005-016-300100-
NORTH CENTRAL ARKANSAS
  
CITY           SKY/WX    TMP DP  RH WIND       PRES   REMARKS
BATESVILLE     CLOUDY    64  61  88 E7        29.82F                  
6HR MIN TEMP:  57; 6HR MAX TEMP:  64;                                

FLIPPIN        CLOUDY   N/A N/A N/A SE9       29.77F                  
MTN HOME       CLOUDY    60  59  96 E10       29.79F FOG              
6HR MIN TEMP:  55; 6HR MAX TEMP:  60; 6HR PCP: TRACE;                

$$

ARZ040-041-300100-
WEST CENTRAL ARKANSAS
  
CITY           SKY/WX    TMP DP  RH WIND       PRES   REMARKS
MENA           CLOUDY    70  68  94 SE3       29.72R                  
MOUNT IDA      RAIN      70  66  87 SE8       29.73R FOG              
6HR MIN TEMP:  62; 6HR MAX TEMP:  70; 6HR PCP:  0.26;                

$$

ARZ009-017-025-026-028-300100-
NORTHEAST ARKANSAS
  
CITY           SKY/WX    TMP DP  RH WIND       PRES   REMARKS
CORNING          N/A     64  63  94 E10       29.87S                  
JONESBORO      CLOUDY    65  62  90 E8        29.84S                  
6HR MIN TEMP:  58; 6HR MAX TEMP:  65; 6HR PCP:  0.50;                

NEWPORT        CLOUDY    67  65  93 SE7       29.84F                  
6HR MIN TEMP:  57; 6HR MAX TEMP:  67; 6HR PCP:  0.14;                

WALNUT RIDGE   CLOUDY    64  59  82 E10       29.85S                  
6HR MIN TEMP:  55; 6HR MAX TEMP:  64; 6HR PCP:  0.11;                

BLYTHEVILLE    CLOUDY    66  60  81 SE13      29.86F                  
6HR MIN TEMP:  60; 6HR MAX TEMP:  66; 6HR PCP:  0.73;                

$$

ARZ022-023-033-042-044-300100-
CENTRAL ARKANSAS
  
CITY           SKY/WX    TMP DP  RH WIND       PRES   REMARKS
LITTLE ROCK    LGT RAIN  70  66  87 S10       29.79F                  
6HR MIN TEMP:  64; 6HR MAX TEMP:  70; 6HR PCP:  0.11;                

N LITTLE ROCK    N/A     67  66  96 SE8G16    29.78F                  
6HR MIN TEMP:  62; 6HR MAX TEMP:  67;                                

JACKSONVILLE   LGT RAIN  67  67  99 SE6       29.79F                  
6HR MIN TEMP:  60; 6HR MAX TEMP:  67; 6HR PCP:  0.06;                

SEARCY         CLOUDY    66  64  94 E5        29.81F                  
6HR MIN TEMP:  57; 6HR MAX TEMP:  66; 6HR PCP: 19.80;                

HOT SPRINGS    RAIN      70  67  90 SE5       29.79R FOG              
6HR MIN TEMP:  66; 6HR MAX TEMP:  71; 6HR PCP:  0.35;                

RUSSELLVILLE   CLOUDY    66  63  90 E8G17     29.75R                  
6HR MIN TEMP:  61; 6HR MAX TEMP:  67;                                

$$

ARZ036-300100-
EAST ARKANSAS
  
CITY           SKY/WX    TMP DP  RH WIND       PRES   REMARKS
WEST MEMPHIS   CLOUDY    65  64  97 SE13      29.82F                  
6HR MIN TEMP:  60; 6HR MAX TEMP:  66; 6HR PCP:  0.54;                

$$

ARZ050-053-066-070-073-300100-
SOUTHWEST ARKANSAS
  
CITY           SKY/WX    TMP DP  RH WIND       PRES   REMARKS
ARKADELPHIA    TSTM      69  69 100 NW10      29.81R FOG              
6HR MIN TEMP:  69; 6HR MAX TEMP:  75; 6HR PCP:  0.96;                

CAMDEN         LGT RAIN  68  64  88 CALM      29.77S                  
TEXARKANA      TSTM      67  65  93 E12G21    29.68F                  
6HR MIN TEMP:  67; 6HR MAX TEMP:  81; 6HR PCP:  0.56;                

EL DORADO      LGT RAIN  68  65  90 E6        29.76F                  
6HR MIN TEMP:  68; 6HR MAX TEMP:  80; 6HR PCP:  0.09;                

DE QUEEN       HVY RAIN  70  69  97 SE18G31   29.64F FOG              
6HR MIN TEMP:  67; 6HR MAX TEMP:  72;                                

$$

ARZ056-057-069-300100-
SOUTHEAST ARKANSAS
  
CITY           SKY/WX    TMP DP  RH WIND       PRES   REMARKS
PINE BLUFF     CLOUDY    67  66  97 S6        29.81S                  
6HR MIN TEMP:  64; 6HR MAX TEMP:  69; 6HR PCP:  0.14;                

STUTTGART      CLOUDY    66  63  88 SE12      29.79F                  
6HR MIN TEMP:  61; 6HR MAX TEMP:  68; 6HR PCP:  0.47;                

MONTICELLO     CLOUDY    70  68  93 E12       29.77F                  
6HR MIN TEMP:  70; 6HR MAX TEMP:  76; 6HR PCP:  0.04;                


$$


  

Return to Home page


Western Regional Climate Center, wrcc@dri.edu